RH
98 99 98 98 97 98 98 98 98 97 98 97 98 98 99 99 86 73 52 22 22 17 23 27 23 19 18 12 14 12 11 13 24 31 35 31 30 28 33 35 36 36 42 52 81
98 99 98 98 98 97 98 97 98 98 97 97 98 98 99 98 81 52 27 19 18 18 19 15 14 14 13 13 14 14 13 14 18 26 29 28 22 38 45 40 42 51 55 73 75
98 98 97 98 98 98 98 98 98 98 97 98 98 99 97 94 54 21 20 22 18 17 14 13 11 14 13 13 14 13 13 14 21 19 19 21 21 19 37 36 33 52 61 71 68
99 98 99 98 98 99 98 99 98 98 97 98 98 100 99 83 21 16 19 13 16 25 17 14 15 16 12 14 13 15 12 12 18 21 20 19 18 28 25 23 27 45 59 75 69
100 93 99 98 99 99 98 99 98 98 98 97 99 100 80 46 25 19 16 13 22 21 15 13 13 12 12 13 14 14 11 9 9 14 19 19 24 25 22 30 35 45 54 59 58
98 94 99 100 100 100 99 100 98 98 97 98 98 98 68 33 20 25 18 18 24 18 16 14 12 12 11 14 13 12 9 8 9 14 14 19 23 19 24 33 39 47 46 49 50
89 98 100 100 100 100 99 99 98 98 99 99 99 92 63 26 21 34 31 25 22 17 16 15 14 12 13 16 10 9 10 9 9 14 14 12 12 22 32 35 40 40 42 45 44
73 98 100 100 100 99 99 98 98 98 99 99 99 90 39 26 25 29 25 25 27 19 18 19 18 14 16 11 9 9 9 12 12 11 12 10 13 25 36 36 40 41 44 44 40
74 99 97 99 100 100 100 98 98 98 100 100 92 78 25 21 20 15 21 13 23 24 22 19 18 17 15 14 11 11 10 10 12 15 11 9 12 27 37 33 35 38 40 40 41
75 98 96 97 100 100 100 98 99 99 99 95 80 64 27 14 17 13 13 15 16 21 21 19 16 16 13 11 13 11 9 9 10 19 10 12 23 26 38 35 35 34 36 38 39
68 88 99 100 100 100 88 84 69 65 79 28 23 28 15 16 16 10 11 14 15 16 18 19 16 14 12 10 10 10 10 11 16 27 22 23 23 27 35 38 40 37 38 38 39
66 80 100 100 100 100 91 55 34 46 33 36 33 30 24 22 18 10 14 14 15 13 17 19 16 17 17 14 12 11 11 17 24 29 25 25 30 31 32 37 38 39 39 41 46
68 84 100 100 99 96 78 54 53 46 42 29 30 20 18 20 14 11 11 16 14 15 15 14 19 21 18 17 16 18 15 23 18 28 26 24 29 33 38 38 40 39 38 41 44
71 85 98 99 85 72 61 38 40 49 27 21 19 17 17 16 15 14 16 14 19 18 20 21 22 20 19 20 22 22 21 21 27 23 21 25 20 33 38 42 42 45 44 45 48
73 80 100 65 72 55 54 70 62 47 36 18 16 14 15 15 14 18 20 16 17 21 23 26 22 21 20 23 24 25 25 25 24 22 25 26 24 32 38 42 44 46 45 44 41
74 71 100 95 90 60 65 72 51 46 34 20 15 17 19 18 19 19 19 18 20 22 21 24 21 21 23 26 24 27 26 26 25 25 30 22 24 20 36 33 38 42 40 41 38
74 68 100 86 48 78 82 50 39 38 24 20 18 17 18 20 23 22 22 23 21 27 27 23 24 22 23 27 27 26 24 29 29 34 33 33 30 20 22 29 32 41 37 38 36
74 89 100 86 75 71 56 34 34 23 24 20 18 18 22 21 25 26 26 25 26 23 23 20 30 22 23 24 23 26 24 27 35 39 23 34 28 19 26 25 29 33 32 34 35
81 99 99 84 60 86 42 54 31 28 23 21 20 21 25 25 21 26 27 25 26 26 20 24 26 23 26 24 23 28 30 28 40 46 41 24 25 25 30 30 30 32 32 34 34
97 97 65 75 60 66 50 39 25 33 28 22 20 19 25 25 22 22 28 30 30 30 28 27 30 26 26 25 27 24 25 33 34 46 38 22 27 21 34 34 32 32 34 33 33
71 56 75 77 74 50 50 32 31 38 33 24 20 24 21 28 23 22 24 32 32 29 25 23 26 32 30 28 25 30 27 29 27 38 25 22 14 26 29 30 34 33 33 33 36
56 52 86 70 49 35 36 29 40 35 33 29 25 23 25 28 28 28 27 29 38 30 30 28 31 41 29 28 28 26 24 21 24 31 43 49 20 25 32 31 29 31 32 32 38
50 56 76 52 52 62 36 31 36 31 28 32 29 28 34 34 39 37 36 40 37 34 32 32 35 42 35 31 28 29 27 24 32 42 41 59 19 25 30 33 30 31 31 37 42
44 67 64 40 34 32 32 31 28 35 32 32 38 37 39 40 42 46 44 41 42 40 64 34 36 34 37 26 27 35 32 26 22 35 26 32 14 19 22 28 30 34 34 39 44
51 44 39 68 44 29 27 27 26 36 33 32 36 34 35 48 45 47 43 41 45 65 45 36 38 36 35 36 33 28 28 29 27 25 30 16 20 13 16 20 24 33 38 41 44
51 50 49 40 36 29 35 27 25 34 33 32 33 37 37 44 33 46 40 37 36 47 43 44 47 47 49 43 38 37 27 27 27 24 27 20 23 16 20 26 32 39 42 43 43
62 50 34 72 37 32 33 27 25 35 48 38 33 39 44 44 44 42 42 40 36 42 50 50 59 47 40 48 45 62 39 26 26 26 27 28 22 26 32 34 33 37 41 42 41
Wind_Speed
14 14 15 17 18 19 18 18 17 16 16 15 15 14 15 16 18 8 13 12 6 15 10 14 12 12 7 7 4 3 6 7 9 13 13 15 6 5 3 10 5 3 2 14 22
12 14 15 17 19 20 18 18 16 13 15 14 14 12 13 15 15 17 20 12 9 16 14 16 13 13 7 8 5 7 6 3 9 15 12 1 4 15 8 13 5 7 12 22 21
13 13 16 18 20 19 17 16 15 12 13 13 12 11 12 11 8 4 5 10 21 12 10 9 12 9 8 7 8 6 5 8 12 10 13 15 16 8 12 11 6 14 20 18 20
15 14 17 18 18 17 14 15 12 11 12 11 9 10 11 3 1 5 8 19 20 19 12 13 10 9 8 10 9 8 2 3 12 12 11 12 7 7 5 9 3 19 22 19 16
17 15 17 18 16 15 12 13 9 9 11 9 8 9 4 5 7 6 4 22 21 16 17 13 12 8 11 9 8 11 2 3 5 11 13 9 5 8 10 7 15 20 18 17 15
17 15 17 16 15 13 10 10 7 8 9 8 6 3 3 6 0 2 6 20 15 17 14 11 5 7 6 4 11 1 3 1 1 7 7 9 6 6 10 3 15 18 16 15 14
17 15 16 13 13 11 9 7 6 8 7 6 4 1 5 11 0 7 7 9 15 18 12 14 4 7 1 6 3 9 9 10 8 10 6 13 9 7 4 4 14 14 11 10 10
19 16 15 13 11 8 7 4 6 7 6 5 1 2 7 4 2 10 11 7 10 15 10 5 10 6 4 4 5 7 7 8 5 9 5 6 12 8 2 8 11 12 11 10 8
20 16 13 11 9 4 4 4 5 6 5 2 1 3 5 5 5 4 10 3 9 10 6 2 9 5 6 8 7 7 8 11 9 4 8 7 11 7 2 9 10 10 10 10 9
20 15 12 9 6 5 5 3 3 2 2 3 3 4 8 2 3 1 7 12 4 12 7 3 4 6 6 9 9 9 8 13 13 4 7 7 7 6 4 10 10 10 9 9 8
19 14 10 7 6 10 8 5 4 5 7 5 1 5 5 9 2 4 3 6 9 4 2 6 5 7 11 6 3 5 7 12 8 4 5 5 7 5 6 8 10 10 10 10 8
17 12 9 6 10 11 7 4 6 4 4 15 11 9 12 4 3 5 4 6 6 6 6 6 5 3 6 5 5 6 10 8 6 3 4 9 7 6 5 5 6 9 9 9 9
16 11 7 10 13 9 10 15 3 7 4 4 7 5 3 7 3 2 2 1 1 8 9 8 7 3 6 6 6 3 6 10 5 7 2 10 7 8 4 5 6 5 6 8 10
15 11 11 17 9 6 8 13 15 10 4 6 5 4 5 3 4 2 2 2 3 4 2 5 3 5 7 5 2 6 3 9 12 13 8 8 8 10 8 7 9 10 11 12 14
15 13 20 19 3 7 0 2 5 3 6 7 6 4 4 6 4 3 3 3 2 4 5 3 6 7 6 3 2 3 7 10 8 7 5 11 8 9 9 11 14 13 13 13 13
16 15 22 19 6 10 4 5 5 4 4 7 6 7 8 3 2 3 2 5 3 3 4 5 2 2 3 5 2 11 12 8 4 3 6 3 8 8 10 17 16 16 14 15 14
18 18 30 11 3 2 6 6 4 6 3 7 12 7 8 5 4 3 7 7 5 8 8 6 4 5 5 10 8 7 10 5 6 5 7 1 6 12 4 5 18 19 18 17 16
17 19 29 17 8 1 5 5 6 3 7 2 6 8 10 5 3 3 8 8 2 5 8 9 6 5 2 3 5 9 7 4 5 6 6 3 7 3 1 6 13 18 18 18 16
15 16 11 19 22 4 5 6 7 5 6 8 8 13 6 5 3 5 3 5 2 1 3 5 3 4 2 2 2 5 7 3 2 0 4 6 6 10 4 8 13 20 19 19 17
16 10 13 14 16 11 6 7 5 3 3 7 13 10 13 10 8 7 8 3 4 1 2 4 4 2 5 2 7 3 8 3 3 3 5 3 7 6 7 11 16 20 20 19 17
13 6 10 16 17 6 9 10 5 5 5 8 8 6 10 9 7 8 7 4 3 4 1 5 2 5 3 6 6 4 4 1 1 2 3 3 1 3 1 9 16 20 20 19 17
11 8 12 22 8 7 11 6 3 4 3 6 4 5 11 10 8 8 9 1 3 3 5 3 2 4 6 3 2 3 4 7 4 4 0 2 4 3 1 3 10 16 18 17 16
9 5 5 8 9 7 5 6 4 5 5 7 7 3 2 7 5 5 6 2 3 5 5 6 4 4 5 5 4 7 7 4 5 1 6 3 2 3 3 5 8 13 14 15 16
8 9 5 6 3 15 12 12 9 2 3 3 4 3 6 4 1 6 7 3 3 2 3 3 3 5 8 0 1 6 11 11 9 4 4 9 9 8 7 7 8 12 14 17 17
5 8 11 10 10 14 15 12 14 5 4 5 3 5 7 5 4 5 5 5 4 4 2 3 5 4 1 1 3 4 9 14 15 13 8 7 11 8 7 9 9 8 12 15 17
6 5 4 14 13 13 12 11 16 7 6 7 6 8 6 6 6 9 9 7 4 6 5 1 3 2 4 2 2 7 10 12 16 15 16 17 18 13 8 5 8 11 14 16 17
4 1 9 3 11 14 10 13 14 10 1 2 7 7 5 4 5 8 7 8 5 5 5 3 5 4 2 1 2 6 15 17 12 13 14 13 13 5 6 9 10 12 14 16 17
Wind_Direction
300 302 305 307 305 305 306 303 302 306 304 304 303 304 306 311 315 289 248 231 230 209 159 148 163 182 184 182 204 241 230 208 139 118 125 133 131 140 284 263 181 111 112 137 151
292 301 302 303 302 303 302 299 296 301 299 299 298 303 313 314 304 262 259 235 203 167 162 167 168 175 184 186 191 235 243 175 138 131 134 23 228 159 200 188 165 93 119 140 149
288 296 297 301 300 298 298 296 295 298 295 293 299 308 310 332 279 249 267 217 195 176 174 174 167 188 197 186 186 186 262 129 155 127 141 156 208 197 196 184 165 151 143 147 153
289 297 298 300 300 296 297 291 292 294 290 292 299 306 316 305 346 14 317 167 170 179 187 170 175 185 191 192 196 230 212 102 173 182 170 190 170 183 195 41 121 146 145 149 156
286 295 296 300 297 294 294 290 293 290 284 288 299 305 352 247 259 321 122 158 161 173 189 190 187 188 194 195 187 237 205 190 173 187 193 153 162 125 53 81 119 140 152 151 157
283 294 295 298 296 293 293 285 289 282 277 278 288 325 276 257 201 196 117 164 173 181 204 209 222 214 203 194 222 150 200 114 159 119 127 180 115 163 57 106 129 147 155 156 161
283 292 293 294 292 292 288 282 285 272 265 268 284 325 255 255 190 174 151 189 197 197 195 211 221 210 273 170 169 145 127 127 134 159 129 135 123 58 11 158 141 153 148 155 154
283 286 289 290 284 288 274 267 260 257 256 253 220 243 258 254 223 233 244 226 203 207 230 241 217 264 279 112 137 172 182 145 97 167 150 232 121 61 38 159 159 153 152 149 143
282 281 284 284 277 266 244 241 243 241 242 159 167 260 260 277 253 254 191 168 155 183 194 78 170 217 180 208 162 186 177 142 131 32 155 258 126 59 131 167 160 163 162 156 148
281 279 278 279 262 217 208 175 237 223 219 219 249 258 244 75 332 212 178 153 147 145 141 206 193 206 199 196 179 172 141 168 153 91 182 137 104 103 139 172 171 165 169 169 166
275 273 265 262 229 198 160 114 203 205 226 237 59 292 294 332 249 186 169 145 140 204 185 201 208 215 183 209 33 129 140 142 120 102 130 138 135 132 146 171 179 178 178 175 170
268 264 263 224 198 201 170 229 287 348 254 225 253 271 274 282 261 183 196 209 202 189 166 177 144 101 116 139 144 145 158 141 119 128 236 170 133 127 154 162 193 186 187 177 159
261 256 224 183 180 190 219 228 223 3 263 174 206 246 279 195 249 182 248 29 6 146 226 211 112 153 147 133 152 138 195 168 184 160 202 184 176 172 137 151 153 173 159 168 161
250 246 184 173 181 188 236 252 251 253 224 149 203 195 173 230 219 13 29 132 200 144 141 80 103 150 133 138 266 182 198 149 154 182 199 214 220 186 173 161 169 157 153 142 138
240 229 195 177 147 192 224 191 171 177 193 155 159 128 153 203 129 141 37 203 175 158 246 102 151 146 149 85 169 67 164 145 163 203 207 194 253 115 178 192 180 168 160 155 151
230 218 193 211 247 223 261 170 153 226 221 165 172 179 173 163 139 135 159 82 108 102 101 101 85 24 89 62 183 142 135 129 159 209 240 233 251 188 186 214 183 177 173 164 159
228 209 191 195 208 269 197 193 188 216 128 168 175 182 191 163 141 168 169 154 188 158 162 156 114 116 153 118 139 224 181 181 224 210 249 92 249 262 221 202 187 180 172 168 163
222 196 205 216 224 318 218 194 200 200 194 117 181 172 194 167 126 142 169 166 156 245 175 204 176 169 141 268 205 198 237 228 239 224 260 175 248 258 130 181 191 181 174 170 171
188 184 225 235 211 205 245 199 195 203 174 176 168 189 165 154 202 178 191 165 144 283 212 179 132 128 65 169 239 159 218 46 148 51 272 255 239 247 192 198 194 183 177 180 180
157 178 227 207 194 184 230 212 205 196 188 191 185 211 190 179 186 210 194 149 146 208 312 166 155 175 137 174 65 286 126 182 211 234 243 204 272 262 183 186 190 187 188 187 183
164 200 156 169 153 194 206 200 203 206 209 191 190 170 202 178 201 192 185 150 194 134 181 168 235 151 203 215 198 152 189 73 85 294 280 295 250 52 290 194 195 197 196 191 187
175 201 156 153 175 202 198 194 183 172 165 204 222 167 184 181 183 193 193 268 142 175 187 143 154 177 196 118 312 272 205 196 237 180 167 324 290 145 180 236 207 204 200 197 192
177 159 160 202 182 182 160 177 219 172 184 183 184 188 167 170 180 187 178 89 176 201 178 174 194 165 168 175 190 226 193 186 116 127 206 189 263 170 205 221 218 218 196 198 192
173 171 149 201 249 180 177 188 198 186 179 169 141 132 142 157 90 169 160 144 134 153 43 189 190 241 235 311 246 196 196 197 204 200 206 236 265 208 223 225 207 214 199 197 192
208 182 167 178 193 185 185 176 192 164 204 191 145 200 167 148 157 172 163 147 142 154 150 224 232 210 210 125 214 252 222 200 212 228 224 267 249 270 249 237 229 203 196 197 193
186 168 172 157 162 171 180 187 194 164 188 182 202 152 173 173 196 185 170 190 177 167 176 147 197 187 213 204 256 256 239 228 228 244 254 263 268 273 253 253 205 199 197 201 200
174 151 174 153 173 181 185 180 200 154 102 10 150 138 145 88 66 65 82 79 107 173 159 154 148 165 234 3 266 282 240 224 222 227 240 249 261 167 202 223 221 210 207 207 205